User: anonymous   Login
Location: Owatonna
(44.0840°N, 93.2260°W)
Time: 19:54:01
(UTC-05:00)
Language:

Cosmos 839 Rocket - Orbit

View from above orbital plane
View from above orbital plane
View from above satellite
View from above satellite

Ground track
Ground track

The orbit data is extracted from the following two-line orbital elements,

1  9013U 76067B   16176.89852612 -.00000040 +00000-0 +51877-4 0  9998
2  9013 065.8664 340.0374 0718772 213.6293 305.6585 12.35323450802278
Epoch (UTC): 24 June 2016 21:33:52
Eccentricity: 0.0718772
inclination: 65.8664°
perigee height: 958 km
apogee height: 2094 km
right ascension of ascending node: 340.0374°
argument of perigee: 213.6293°
revolutions per day: 12.35323450
mean anomaly at epoch: 305.6585°
orbit number at epoch: 80227

The dashed part of the orbit path shows where the satellite is in the earth's shadow,  

DLR